Temp
-11 -11 -11 -11 -11 -11 -11 -10 -10 -10 -10 -10 -10 -10 -10 -10 -10 -10 -10 -10 -10 -10 -10 -10 -10 -10 -10 -10 -10 -10 -10 -10 -10 -10 -10 -10 -10 -10 -10 -10 -10 -11 -11 -11 -11
-12 -11 -11 -11 -11 -11 -11 -10 -10 -10 -10 -10 -10 -10 -10 -10 -10 -10 -10 -10 -10 -10 -10 -10 -10 -10 -10 -10 -10 -10 -10 -10 -10 -10 -10 -10 -10 -10 -10 -10 -10 -10 -11 -11 -11
-12 -11 -11 -11 -11 -11 -10 -10 -10 -10 -10 -10 -10 -10 -10 -10 -10 -10 -10 -10 -10 -10 -10 -10 -10 -10 -10 -10 -10 -10 -10 -10 -10 -10 -10 -10 -10 -10 -10 -10 -10 -10 -10 -11 -11
-12 -12 -11 -11 -11 -11 -11 -11 -10 -10 -10 -10 -10 -10 -10 -10 -10 -10 -10 -10 -11 -11 -11 -10 -10 -10 -10 -10 -10 -10 -10 -10 -10 -10 -10 -10 -10 -10 -10 -10 -10 -10 -10 -11 -11
-13 -12 -12 -12 -11 -11 -11 -11 -11 -11 -11 -11 -10 -10 -10 -10 -10 -10 -10 -11 -11 -11 -11 -10 -10 -10 -10 -10 -10 -10 -10 -10 -10 -10 -10 -10 -10 -10 -10 -10 -10 -10 -11 -11 -11
-14 -13 -12 -12 -12 -11 -11 -11 -11 -11 -11 -11 -11 -11 -10 -11 -11 -11 -11 -11 -11 -11 -10 -10 -10 -11 -11 -10 -10 -10 -10 -10 -10 -10 -10 -10 -10 -10 -10 -10 -10 -11 -11 -11 -11
-15 -14 -13 -13 -12 -12 -12 -11 -11 -11 -11 -11 -11 -11 -11 -11 -11 -11 -11 -11 -11 -10 -10 -10 -10 -11 -11 -11 -11 -10 -10 -11 -11 -10 -10 -10 -10 -10 -10 -10 -10 -10 -10 -11 -11
-15 -15 -15 -14 -13 -13 -12 -12 -12 -11 -11 -11 -11 -11 -11 -11 -11 -11 -11 -11 -11 -11 -11 -10 -10 -11 -11 -11 -11 -10 -11 -11 -10 -10 -10 -10 -10 -10 -10 -10 -10 -10 -10 -10 -11
-15 -15 -15 -15 -14 -14 -13 -13 -12 -12 -12 -11 -11 -11 -11 -11 -11 -11 -11 -11 -11 -11 -11 -11 -11 -11 -11 -11 -11 -11 -10 -10 -10 -10 -10 -10 -10 -10 -10 -10 -10 -10 -10 -10 -11
-15 -15 -15 -15 -15 -15 -14 -13 -13 -12 -12 -12 -12 -11 -11 -12 -11 -11 -11 -11 -11 -11 -11 -11 -11 -11 -11 -11 -11 -10 -10 -10 -11 -10 -10 -10 -10 -10 -10 -10 -10 -10 -10 -11 -11
-16 -16 -16 -15 -15 -15 -15 -15 -14 -13 -13 -12 -12 -11 -12 -12 -12 -11 -11 -11 -11 -11 -11 -11 -11 -11 -11 -11 -11 -11 -11 -10 -11 -11 -10 -10 -10 -10 -10 -10 -10 -10 -10 -11 -11
-16 -16 -16 -16 -15 -15 -15 -15 -15 -14 -13 -13 -12 -12 -12 -12 -12 -11 -11 -11 -11 -11 -11 -11 -11 -11 -11 -11 -11 -11 -11 -11 -11 -11 -10 -10 -10 -10 -10 -10 -10 -11 -11 -11 -11
-17 -16 -16 -15 -15 -15 -15 -15 -15 -15 -13 -13 -13 -12 -12 -12 -12 -12 -11 -11 -11 -11 -11 -11 -11 -11 -11 -11 -11 -11 -11 -11 -11 -11 -10 -10 -10 -10 -10 -10 -11 -11 -11 -11 -11
-17 -17 -16 -16 -15 -15 -15 -15 -15 -14 -14 -13 -14 -13 -13 -12 -12 -12 -12 -12 -11 -11 -12 -11 -11 -11 -12 -11 -12 -11 -12 -11 -11 -11 -11 -11 -9 -9 -10 -10 -11 -11 -11 -11 -10
-16 -16 -16 -16 -15 -16 -16 -16 -15 -15 -15 -14 -13 -13 -13 -13 -12 -12 -12 -12 -12 -12 -12 -11 -12 -12 -12 -12 -12 -11 -12 -12 -12 -11 -11 -11 -11 -9 -10 -10 -11 -12 -11 -11 -10
-16 -16 -17 -17 -16 -16 -16 -16 -16 -16 -15 -14 -13 -13 -13 -13 -12 -12 -13 -13 -13 -13 -12 -12 -12 -12 -12 -12 -12 -12 -12 -12 -12 -12 -11 -10 -11 -8 -9 -10 -10 -11 -12 -11 -11
-17 -16 -16 -16 -16 -16 -17 -16 -15 -16 -15 -14 -13 -13 -13 -13 -13 -13 -13 -13 -13 -13 -12 -12 -12 -12 -13 -12 -12 -12 -12 -12 -12 -12 -11 -11 -11 -9 -10 -10 -10 -11 -12 -11 -11
-17 -17 -17 -16 -16 -17 -18 -16 -16 -16 -16 -15 -14 -14 -13 -13 -13 -13 -13 -13 -13 -13 -13 -13 -13 -13 -12 -13 -13 -13 -13 -13 -13 -12 -11 -11 -9 -8 -10 -11 -11 -11 -11 -11 -11
-18 -18 -17 -17 -17 -17 -18 -18 -18 -16 -16 -16 -16 -15 -14 -14 -14 -14 -14 -14 -13 -13 -13 -13 -13 -13 -13 -13 -14 -13 -13 -13 -14 -13 -12 -10 -9 -9 -10 -11 -11 -11 -11 -12 -12
-19 -19 -18 -18 -18 -18 -19 -18 -17 -17 -16 -16 -17 -16 -16 -15 -15 -14 -14 -13 -13 -14 -14 -14 -14 -13 -13 -13 -13 -13 -13 -14 -13 -13 -12 -10 -9 -9 -10 -10 -11 -12 -12 -12 -12
-20 -19 -19 -19 -19 -19 -19 -18 -16 -16 -16 -16 -16 -16 -16 -16 -16 -16 -15 -14 -15 -15 -16 -16 -15 -13 -13 -13 -13 -14 -14 -14 -14 -14 -13 -11 -9 -9 -10 -10 -11 -12 -12 -12 -12
-21 -20 -20 -21 -21 -20 -20 -18 -16 -16 -16 -16 -16 -16 -16 -16 -16 -16 -16 -15 -15 -16 -16 -16 -16 -15 -14 -14 -14 -14 -14 -14 -14 -14 -13 -12 -9 -10 -11 -11 -11 -12 -12 -12 -12
-21 -20 -20 -21 -22 -21 -19 -19 -18 -17 -17 -17 -16 -16 -16 -16 -16 -16 -16 -15 -16 -16 -16 -16 -16 -15 -14 -14 -14 -14 -14 -14 -15 -14 -13 -13 -9 -9 -11 -11 -12 -12 -13 -13 -12
-22 -21 -21 -21 -21 -21 -21 -20 -20 -19 -18 -18 -17 -17 -17 -17 -16 -16 -16 -16 -16 -17 -17 -17 -16 -15 -14 -14 -15 -15 -15 -15 -15 -15 -11 -13 -9 -10 -10 -12 -12 -13 -14 -13 -13
-23 -22 -21 -21 -21 -21 -21 -21 -21 -20 -20 -19 -18 -18 -17 -16 -16 -15 -16 -15 -16 -16 -17 -17 -16 -16 -16 -16 -16 -15 -15 -15 -15 -12 -15 -10 -13 -10 -12 -12 -13 -13 -14 -14 -14
-23 -23 -22 -22 -22 -22 -22 -22 -21 -21 -21 -20 -19 -18 -18 -17 -17 -15 -15 -16 -17 -17 -17 -17 -16 -17 -16 -16 -16 -16 -16 -15 -14 -13 -14 -12 -12 -12 -12 -13 -13 -14 -14 -14 -14
-24 -23 -23 -22 -22 -22 -22 -21 -21 -21 -21 -21 -20 -20 -19 -18 -17 -17 -18 -19 -18 -18 -18 -17 -17 -17 -17 -16 -17 -17 -14 -14 -15 -14 -14 -14 -11 -14 -13 -14 -14 -14 -13 -13 -13
Height
5799 5804 5808 5812 5816 5819 5822 5824 5827 5831 5833 5837 5840 5842 5845 5847 5848 5851 5854 5857 5858 5860 5862 5865 5868 5869 5871 5872 5874 5875 5877 5876 5875 5874 5874 5874 5874 5873 5873 5872 5872 5872 5872 5873 5873
5794 5798 5802 5806 5811 5814 5817 5821 5824 5827 5829 5833 5837 5839 5841 5844 5846 5849 5852 5854 5857 5859 5861 5864 5866 5868 5870 5871 5872 5873 5875 5875 5875 5874 5873 5873 5873 5872 5872 5871 5871 5871 5871 5871 5871
5787 5793 5797 5801 5805 5809 5811 5815 5819 5823 5826 5829 5833 5836 5839 5841 5845 5846 5848 5851 5854 5856 5858 5862 5864 5866 5867 5869 5870 5871 5872 5872 5872 5873 5872 5871 5871 5870 5870 5869 5869 5870 5870 5869 5869
5780 5784 5789 5794 5798 5802 5806 5810 5814 5817 5822 5825 5829 5832 5835 5839 5842 5843 5846 5848 5851 5853 5856 5858 5860 5863 5864 5866 5867 5868 5868 5869 5869 5870 5870 5870 5869 5869 5868 5868 5867 5867 5868 5868 5867
5772 5777 5782 5786 5790 5795 5800 5804 5809 5812 5817 5820 5824 5827 5831 5835 5838 5841 5843 5845 5847 5850 5852 5855 5857 5860 5861 5863 5864 5865 5866 5866 5866 5866 5867 5867 5867 5867 5866 5865 5865 5865 5865 5865 5865
5765 5770 5774 5779 5784 5788 5793 5798 5803 5808 5812 5816 5818 5822 5827 5831 5834 5837 5840 5842 5845 5847 5849 5852 5855 5856 5857 5859 5861 5862 5862 5862 5862 5862 5862 5863 5864 5864 5863 5863 5862 5861 5861 5862 5862
5758 5763 5767 5772 5777 5781 5786 5790 5795 5800 5806 5810 5813 5817 5821 5826 5829 5832 5835 5838 5841 5843 5846 5848 5851 5853 5854 5855 5857 5858 5859 5859 5859 5859 5859 5859 5860 5859 5859 5859 5859 5858 5858 5857 5858
5752 5755 5760 5765 5769 5773 5778 5783 5787 5792 5797 5802 5807 5811 5816 5820 5824 5828 5830 5833 5836 5839 5842 5844 5846 5848 5850 5851 5853 5854 5855 5855 5855 5856 5856 5856 5858 5855 5854 5855 5855 5855 5854 5853 5853
5744 5749 5753 5757 5762 5766 5769 5774 5779 5784 5789 5794 5799 5804 5809 5813 5818 5821 5825 5828 5831 5833 5836 5839 5842 5844 5846 5848 5849 5848 5849 5851 5851 5851 5851 5851 5853 5850 5850 5850 5851 5850 5849 5849 5849
5736 5741 5746 5750 5754 5758 5762 5766 5771 5775 5780 5785 5791 5798 5803 5807 5810 5815 5818 5822 5825 5827 5830 5833 5836 5839 5843 5842 5843 5844 5845 5846 5846 5846 5844 5846 5848 5846 5845 5845 5845 5846 5844 5844 5844
5727 5731 5737 5742 5746 5751 5755 5759 5765 5768 5771 5778 5784 5788 5794 5799 5802 5807 5811 5814 5817 5821 5824 5826 5830 5836 5835 5835 5838 5838 5839 5841 5841 5838 5837 5839 5841 5841 5838 5841 5840 5839 5838 5838 5838
5717 5722 5727 5732 5738 5743 5747 5751 5754 5759 5763 5769 5774 5781 5786 5791 5795 5800 5803 5807 5810 5813 5816 5820 5824 5827 5827 5829 5831 5833 5833 5834 5834 5831 5829 5833 5833 5835 5833 5834 5835 5833 5831 5832 5830
5706 5711 5716 5721 5728 5735 5739 5742 5745 5748 5753 5762 5766 5773 5777 5782 5787 5791 5796 5799 5802 5806 5809 5813 5817 5819 5820 5823 5824 5825 5826 5826 5825 5824 5822 5821 5820 5826 5830 5828 5826 5825 5824 5823 5823
5696 5701 5705 5711 5719 5724 5729 5731 5735 5741 5742 5753 5758 5762 5768 5774 5778 5784 5787 5791 5794 5800 5801 5805 5810 5812 5814 5815 5815 5817 5817 5817 5817 5815 5814 5813 5802 5815 5821 5822 5819 5816 5813 5813 5814
5683 5689 5693 5699 5707 5714 5718 5722 5725 5731 5728 5739 5747 5754 5760 5764 5773 5777 5779 5781 5787 5790 5793 5799 5800 5802 5805 5808 5807 5810 5810 5809 5807 5807 5802 5805 5799 5799 5810 5813 5815 5809 5805 5804 5806
5670 5677 5682 5688 5697 5704 5707 5710 5715 5715 5713 5724 5736 5744 5749 5754 5759 5764 5768 5771 5776 5778 5782 5786 5789 5794 5797 5799 5799 5800 5800 5800 5799 5796 5790 5798 5795 5786 5797 5804 5805 5804 5799 5797 5797
5657 5664 5671 5679 5687 5688 5691 5698 5696 5694 5711 5716 5723 5732 5735 5742 5747 5751 5756 5761 5765 5767 5773 5776 5780 5783 5786 5788 5789 5791 5791 5790 5788 5785 5784 5784 5779 5780 5783 5790 5793 5795 5793 5790 5790
5642 5649 5656 5666 5672 5675 5677 5679 5670 5686 5697 5706 5711 5716 5720 5726 5733 5738 5741 5748 5754 5758 5761 5763 5767 5773 5777 5779 5778 5778 5780 5780 5774 5775 5776 5772 5768 5774 5776 5781 5781 5780 5782 5782 5781
5625 5632 5643 5652 5655 5658 5657 5652 5663 5679 5688 5695 5696 5698 5707 5714 5719 5724 5729 5736 5743 5747 5748 5749 5753 5759 5763 5764 5765 5768 5767 5771 5767 5767 5763 5762 5764 5764 5768 5770 5772 5773 5772 5773 5772
5608 5616 5631 5633 5637 5638 5635 5639 5655 5670 5677 5680 5681 5686 5693 5702 5703 5709 5713 5725 5729 5734 5734 5734 5737 5744 5747 5750 5751 5753 5757 5757 5756 5756 5753 5753 5751 5755 5759 5758 5763 5766 5766 5765 5764
5592 5598 5615 5615 5614 5614 5615 5628 5649 5658 5662 5663 5671 5674 5680 5686 5692 5694 5701 5711 5716 5719 5719 5721 5723 5730 5732 5737 5740 5741 5742 5741 5741 5742 5741 5742 5743 5748 5749 5749 5750 5756 5757 5756 5756
5574 5583 5594 5596 5593 5597 5603 5620 5635 5641 5643 5647 5656 5662 5670 5674 5677 5681 5689 5699 5701 5705 5706 5711 5709 5713 5718 5721 5723 5725 5728 5727 5726 5732 5734 5734 5732 5740 5734 5740 5741 5743 5745 5743 5743
5557 5566 5575 5574 5569 5581 5596 5603 5614 5620 5629 5633 5643 5649 5658 5657 5659 5668 5679 5688 5688 5691 5695 5698 5694 5699 5702 5707 5709 5711 5717 5721 5719 5721 5725 5720 5727 5730 5727 5730 5731 5731 5732 5731 5729
5538 5545 5555 5553 5562 5568 5577 5585 5594 5606 5610 5617 5628 5631 5635 5639 5646 5655 5665 5672 5676 5680 5682 5678 5679 5685 5691 5695 5695 5698 5703 5704 5704 5704 5711 5709 5718 5718 5716 5717 5718 5715 5717 5718 5717
5516 5528 5535 5535 5547 5556 5561 5568 5577 5584 5593 5600 5606 5611 5620 5625 5633 5640 5653 5657 5659 5667 5666 5662 5666 5673 5681 5680 5680 5683 5685 5686 5686 5696 5686 5704 5697 5710 5707 5704 5697 5700 5705 5704 5703
5496 5512 5516 5521 5527 5533 5541 5547 5559 5571 5575 5582 5585 5601 5606 5605 5617 5633 5642 5638 5643 5647 5650 5649 5653 5656 5661 5670 5666 5666 5669 5674 5676 5679 5673 5687 5685 5695 5698 5695 5690 5689 5688 5689 5688
5482 5491 5490 5500 5504 5508 5522 5536 5544 5557 5557 5567 5575 5580 5583 5594 5608 5617 5614 5613 5620 5626 5631 5633 5636 5640 5642 5655 5647 5643 5665 5666 5664 5668 5669 5666 5680 5676 5678 5678 5677 5674 5673 5674 5675
Wind_Speed
45 43 39 37 35 34 31 29 27 26 24 23 23 22 22 22 20 19 20 20 21 22 21 20 19 17 16 15 13 11 8 6 6 7 8 7 6 8 8 7 8 7 7 6 5
46 45 42 39 38 36 35 33 30 28 26 25 25 24 23 22 21 21 22 22 21 21 22 20 19 17 17 16 14 12 11 10 9 9 9 10 9 9 9 9 9 10 9 9 9
48 46 43 42 40 38 37 36 33 31 28 27 27 25 25 24 24 23 24 23 23 22 22 21 19 18 18 17 16 15 15 14 12 11 11 12 10 11 11 10 11 11 10 11 11
48 48 46 43 41 40 39 38 36 33 32 31 30 28 27 27 28 27 26 25 24 23 21 20 20 19 19 18 18 17 17 16 15 15 13 13 13 11 11 12 14 13 12 13 13
47 47 47 46 44 42 40 39 39 37 36 34 32 30 30 30 29 28 27 26 25 24 22 22 21 20 19 19 18 18 18 17 17 17 16 14 14 15 14 14 15 15 14 14 15
43 47 48 48 47 46 44 43 42 41 40 37 34 34 33 34 33 31 29 28 26 25 23 22 20 19 19 20 19 18 18 17 18 18 18 17 16 16 18 17 15 16 18 17 16
39 42 47 48 48 48 48 47 46 44 42 39 37 37 36 37 35 34 32 30 28 27 26 24 22 21 19 18 17 16 17 17 19 20 20 19 16 19 18 18 16 18 18 20 19
39 40 42 46 48 48 49 49 48 47 45 43 41 40 40 40 38 36 35 33 32 30 28 26 25 23 21 20 19 19 20 18 19 18 17 18 14 20 21 21 21 21 22 22 21
42 40 41 43 45 47 49 49 50 49 48 47 45 45 44 43 41 39 38 36 35 33 32 30 28 26 24 23 22 23 22 20 19 19 21 22 17 23 23 25 24 24 24 23 23
46 44 42 42 44 44 46 49 50 51 51 50 49 48 47 45 44 42 41 40 38 38 36 34 32 30 26 28 28 27 25 23 22 23 26 25 21 26 27 27 27 25 26 25 25
46 45 46 45 44 45 46 46 48 51 52 52 51 51 49 49 48 46 44 43 42 41 39 38 36 30 31 32 30 30 29 27 26 29 30 28 26 28 32 31 31 31 30 28 27
55 52 50 47 49 46 47 47 48 51 52 53 54 53 53 51 50 48 47 45 44 44 44 42 37 34 35 33 33 33 33 31 31 33 37 31 31 29 35 36 34 36 36 32 33
45 51 58 60 51 52 50 50 50 51 55 52 54 55 54 54 52 50 49 48 47 46 44 43 40 38 38 35 35 36 36 35 36 36 39 39 42 37 34 35 34 32 33 36 34
52 52 51 53 63 55 49 53 54 54 55 55 52 55 55 54 55 52 51 51 49 46 45 45 42 40 38 38 37 38 37 39 39 41 42 42 54 44 37 32 33 32 33 35 35
54 52 50 49 52 57 60 60 59 55 60 60 57 55 56 56 55 52 51 51 50 48 47 46 45 43 42 39 39 40 39 40 41 42 45 49 55 51 40 32 24 30 35 34 34
57 55 54 51 46 48 50 46 65 60 61 62 59 58 57 55 57 57 53 52 51 50 50 49 48 46 44 41 40 41 42 41 42 44 56 52 54 55 48 39 29 27 31 33 33
61 60 59 57 53 55 41 39 55 67 63 60 60 59 58 58 58 57 56 54 52 52 52 50 49 47 45 45 43 42 42 44 48 54 59 58 62 51 48 33 32 32 31 33 32
66 64 62 60 61 60 60 57 46 46 62 60 61 62 63 59 59 59 58 56 56 55 53 51 52 48 45 44 43 42 44 46 53 57 62 64 56 46 39 30 26 31 31 32 34
70 70 67 65 64 64 68 72 69 51 50 43 61 69 68 65 60 59 61 60 56 55 55 56 56 54 51 50 47 50 53 52 51 60 63 59 50 41 35 31 25 23 26 28 32
65 71 70 69 69 68 69 72 72 65 61 58 57 55 56 69 68 66 62 64 66 64 63 60 62 61 60 59 61 62 61 61 61 61 64 59 46 37 35 35 28 23 26 28 30
62 66 67 71 72 73 70 70 71 70 67 67 63 63 61 56 53 59 66 65 58 53 46 52 60 66 65 66 62 54 55 56 56 57 59 56 42 40 41 41 38 30 28 29 30
64 64 65 66 73 78 77 72 73 69 70 68 67 65 60 59 61 56 49 53 53 47 48 43 50 56 58 54 53 52 51 50 52 51 50 49 41 39 45 40 42 36 31 37 38
67 66 64 67 72 75 79 75 76 71 70 70 69 71 65 67 67 63 56 51 51 50 46 43 46 51 56 58 58 54 50 48 47 47 47 52 38 43 50 47 45 43 38 39 42
69 71 70 73 71 69 72 77 78 78 76 70 69 71 72 71 70 68 60 60 59 57 52 54 52 50 53 51 51 52 51 51 51 57 54 56 47 50 52 50 47 49 43 42 44
68 71 72 76 73 72 75 68 75 78 77 78 75 74 75 76 75 72 64 64 65 60 54 60 56 56 47 46 48 51 51 48 52 58 57 59 59 52 51 53 59 55 44 43 47
67 66 71 76 77 78 76 77 71 66 76 78 81 78 76 79 73 71 70 68 63 60 51 54 57 53 56 46 47 55 51 52 53 54 58 51 53 51 52 51 54 55 52 51 53
63 64 71 75 78 82 80 75 75 73 63 72 74 72 74 77 75 70 72 72 70 70 65 58 59 50 52 56 55 62 50 52 54 48 50 55 47 45 48 52 53 54 57 58 58
Wind_Direction
214 215 217 218 219 219 217 214 213 215 215 217 218 217 216 218 216 211 209 205 202 199 196 198 200 203 208 213 221 225 228 234 269 302 314 304 305 312 316 294 276 284 290 283 279
218 218 218 220 221 220 219 217 216 217 216 218 220 219 217 217 216 211 206 203 204 202 201 202 206 211 215 220 230 240 247 251 258 282 304 297 297 303 309 302 270 267 282 278 274
220 222 222 222 221 222 219 218 218 219 219 219 220 219 218 214 211 206 203 203 204 204 205 208 212 215 219 226 234 242 249 258 268 276 286 286 287 295 303 292 281 274 280 278 275
222 222 223 225 224 223 222 219 219 219 221 220 220 220 219 214 210 207 205 203 202 202 204 208 216 220 226 230 236 244 252 261 269 275 277 277 277 283 295 280 279 276 275 276 276
222 223 224 224 224 224 223 222 221 220 221 219 219 220 219 215 210 208 205 204 204 207 210 215 219 224 230 235 239 248 256 263 269 272 274 273 273 282 286 286 287 286 281 272 271
222 224 223 225 224 223 223 222 223 223 223 221 219 219 217 214 212 211 211 211 210 212 214 220 224 228 236 241 245 249 257 263 268 271 273 272 272 280 278 286 287 281 280 278 273
224 224 224 224 225 224 223 223 223 223 224 223 221 219 216 216 215 215 214 215 216 217 220 224 227 230 234 240 245 249 254 260 267 270 272 275 282 278 284 282 281 282 277 274 275
226 225 226 226 225 224 224 224 223 223 224 223 222 219 217 217 218 218 219 219 220 222 225 228 231 233 235 241 246 252 255 260 270 274 274 278 283 280 284 281 282 284 283 277 275
227 226 228 228 228 227 225 225 225 224 223 224 222 219 217 219 219 221 222 225 226 225 228 231 235 238 241 244 248 252 257 266 274 277 274 276 281 283 286 287 285 285 284 279 270
230 228 229 230 231 230 229 227 226 225 225 224 223 221 219 220 222 224 226 228 231 232 233 235 239 242 248 252 251 257 264 268 275 276 276 275 275 281 287 287 286 286 281 276 272
230 231 231 233 233 234 232 232 231 229 226 226 224 223 222 222 224 224 228 231 234 236 238 239 241 246 249 254 259 263 266 269 275 275 275 278 275 282 285 291 287 283 281 279 278
230 231 233 235 234 234 237 236 235 235 230 227 226 224 225 224 227 229 230 234 236 238 240 242 244 246 251 256 262 266 269 271 272 275 277 278 278 277 289 292 287 280 276 275 270
242 236 233 237 236 235 235 238 239 238 236 231 229 227 227 228 228 231 234 236 239 241 243 246 248 247 253 259 263 265 269 272 273 275 279 283 275 279 285 293 290 282 274 268 265
240 240 243 236 234 234 234 238 239 241 242 233 234 234 232 232 232 233 236 240 242 245 248 249 251 254 256 258 263 266 269 272 275 277 278 280 280 278 287 287 288 288 270 262 262
240 236 237 239 234 235 239 241 241 240 243 239 233 235 236 237 234 236 241 243 245 247 249 251 252 254 258 261 265 268 269 271 274 276 277 276 283 285 283 280 284 280 275 266 263
238 236 236 240 233 237 234 237 239 242 241 244 240 238 239 240 240 240 241 245 247 249 251 252 255 257 260 263 266 268 270 271 273 276 274 279 283 282 287 284 276 280 272 269 263
239 237 235 236 240 240 240 235 246 234 239 242 244 241 243 242 243 246 247 248 250 252 253 255 257 260 261 263 265 267 269 271 269 269 275 280 281 282 291 290 274 271 268 265 265
237 238 236 235 234 239 244 226 247 238 228 234 241 245 243 244 242 244 246 248 251 254 257 259 257 259 262 263 265 263 263 266 271 277 278 279 278 284 286 291 277 264 260 263 264
237 235 236 237 236 236 236 240 243 244 247 240 240 242 241 244 247 246 249 249 249 251 255 257 257 258 259 260 259 262 262 265 269 272 275 279 280 276 280 284 279 272 264 260 262
238 237 234 236 236 236 238 239 242 246 249 248 247 243 246 242 245 247 248 252 254 252 252 254 257 257 258 258 259 260 264 266 266 269 273 274 273 270 277 271 268 274 270 266 266
243 238 233 236 237 237 235 239 239 241 242 247 250 251 250 244 246 243 246 248 250 251 251 252 255 257 258 261 263 261 263 263 263 263 266 269 266 272 274 273 272 274 271 271 265
243 241 237 238 238 238 238 236 238 237 238 239 244 249 250 253 252 247 246 245 248 251 254 255 254 250 254 254 255 252 257 258 257 260 265 269 258 276 275 273 277 278 274 280 273
244 243 240 240 241 239 238 238 237 235 234 237 239 245 247 249 252 252 249 244 247 247 250 250 252 250 249 251 250 252 255 260 263 264 262 264 264 267 268 274 276 276 274 269 270
243 241 240 241 240 240 239 237 238 239 238 237 236 238 240 244 249 251 250 252 254 254 254 258 254 251 250 254 254 256 257 259 258 258 259 260 268 269 272 272 271 274 274 271 272
244 242 240 242 241 242 241 239 237 234 237 239 235 236 238 240 243 247 252 253 255 255 251 253 254 256 254 249 248 253 254 252 253 261 260 264 263 260 261 265 269 274 276 271 268
247 243 242 241 241 239 238 238 236 235 235 236 239 238 238 240 241 243 247 249 249 248 244 249 247 252 252 248 249 250 254 254 256 254 258 266 269 266 267 267 265 265 266 268 268
249 246 244 240 238 238 237 239 239 236 231 234 236 240 242 241 241 240 244 246 244 244 245 244 247 247 250 246 252 252 251 258 260 263 264 262 262 267 260 263 268 263 261 264 267